This is the latest recevied weather packets stored in our database for station/object KK7KRZ. If no packets are shown the sender has not sent any weather packets the latest 10 day(s).
| Time | Temp. | Humidity | Pressure | Rain* | Wind** | Luminosity | Snow |
|---|---|---|---|---|---|---|---|
| 1777845535 | 31.11° C | 37% | 1008.6 hPa | 0 mm | - | 576 W/m² | - |
| 1777845232 | 31.11° C | 37% | 1008.4 hPa | 0 mm | - | 522 W/m² | - |
| 1777844929 | 31.67° C | 37% | 1008.6 hPa | 0 mm | - | 540 W/m² | - |
| 1777844627 | 32.22° C | 35% | 1008.6 hPa | 0 mm | - | 596 W/m² | - |
| 1777844324 | 31.67° C | 37% | 1008.8 hPa | 0 mm | - | 599 W/m² | - |
| 1777844022 | 31.67° C | 39% | 1008.5 hPa | 0 mm | - | 605 W/m² | - |
| 1777843718 | 31.11° C | 39% | 1008.9 hPa | 0 mm | - | 624 W/m² | - |
| 1777843416 | 30.56° C | 41% | 1008.9 hPa | 0 mm | - | 600 W/m² | - |
| 1777843113 | 30° C | 41% | 1008.8 hPa | 0 mm | - | 590 W/m² | - |
| 1777842810 | 30.56° C | 41% | 1009 hPa | 0 mm | - | 586 W/m² | - |
| 1777842505 | 30.56° C | 42% | 1008.9 hPa | 0 mm | - | 634 W/m² | - |
| 1777842203 | 30.56° C | 42% | 1009.2 hPa | 0 mm | - | 660 W/m² | - |
| 1777841897 | 30° C | 43% | 1009.2 hPa | 0 mm | - | 655 W/m² | - |
| 1777841594 | 29.44° C | 42% | 1009.2 hPa | 0 mm | - | 642 W/m² | - |
| 1777841291 | 28.89° C | 44% | 1009.3 hPa | 0 mm | - | 636 W/m² | - |
| 1777840989 | 29.44° C | 44% | 1009.3 hPa | 0 mm | - | 666 W/m² | - |
| 1777840686 | 28.89° C | 44% | 1009.4 hPa | 0 mm | - | 688 W/m² | - |
| 1777840383 | 28.89° C | 46% | 1009.5 hPa | 0 mm | - | 678 W/m² | - |
| 1777840080 | 28.89° C | 45% | 1009.3 hPa | 0 mm | - | 654 W/m² | - |
| 1777839778 | 29.44° C | 45% | 1009.5 hPa | 0 mm | - | 592 W/m² | - |
| 1777839475 | 28.89° C | 46% | 1009.5 hPa | 0 mm | - | 570 W/m² | - |
| 1777839172 | 27.78° C | 49% | 1009.9 hPa | 0 mm | - | 605 W/m² | - |
| 1777838869 | 27.78° C | 47% | 1009.8 hPa | 0 mm | - | 624 W/m² | - |
| 1777838565 | 27.22° C | 47% | 1010 hPa | 0 mm | - | 650 W/m² | - |
| 1777838263 | 27.22° C | 48% | 1010 hPa | 0 mm | - | 678 W/m² | - |
* Rain latest hour (hover to see other rain measurements)
** Current wind speed in m/s (hover to see current wind gust speed)